Weather History for Newark Heath, OH

Change the Weather History Date:

Thursday, February 7, 2013

  Actual Average Record
Temperature  
Mean Temperature 31 °F -  
Max Temperature 46 °F 34 °F 54 °F (1938)
Min Temperature 16 °F 18 °F -8 °F (2014)
Degree Days  
Heating Degree Days 34    
Moisture  
Dew Point 24 °F    
Average Humidity 68    
Maximum Humidity 85    
Minimum Humidity 47    
Precipitation  
Precipitation 0.00 in - - ()
Sea Level Pressure  
Sea Level Pressure 30.11 in    
Wind  
Wind Speed 2 mph (East)    
Max Wind Speed 8 mph    
Max Gust Speed -    
Visibility 9 miles    
Events      
Averages and records for this station are not official NWS values.
T = Trace of Precipitation, MM = Missing Value Source: NWS Daily Summary

Daily Weather History Graph

Daily Weather History Graph

Search for Another Location

Airport:

Trip Planner

Search our weather history database for the weather conditions in past years. The results will help you decide how hot, cold, wet, or windy it might be!

Date:

Astronomy

Feb. 07, 2013 Rise Set
Actual Time 7:31 AM EST 5:56 PM EST
Civil Twilight 7:03 AM EST 6:24 PM EST
Nautical Twilight 6:31 AM EST 6:56 PM EST
Astronomical Twilight 6:00 AM EST 7:28 PM EST
Moon 5:10 AM EST (2/7) 3:19 PM EST (2/7)
Length of Visible Light 11h 20m
Length of Day
10h 24m
Waning Crescent, 9% of the Moon is Illuminated
Feb 7
Waning Crescent
Feb 10
New
Feb 17
First Quarter
Feb 25
Full
Mar 4
Last Quarter

Hourly Weather History & Observations

Time (EST) Temp. Windchill Dew Point Humidity Pressure Visibility Wind Dir Wind Speed Gust Speed Precip Events Conditions
12:54 AM 16.0 °F - 12.0 °F 84% 30.29 in 4.0 mi Calm Calm - N/A   Clear
1:54 AM 19.0 °F - 15.1 °F 85% 30.26 in 5.0 mi Calm Calm - N/A   Clear
2:54 AM 21.0 °F - 17.1 °F 85% 30.25 in 6.0 mi Calm Calm - N/A   Clear
3:54 AM 24.1 °F 19.7 °F 19.0 °F 81% 30.26 in 7.0 mi NE 3.5 mph - N/A   Clear
4:54 AM 25.0 °F - 19.0 °F 78% 30.26 in 7.0 mi Calm Calm - N/A   Mostly Cloudy
5:54 AM 27.0 °F 21.6 °F 19.9 °F 75% 30.25 in 8.0 mi ENE 4.6 mph - N/A   Overcast
6:54 AM 27.0 °F 21.6 °F 19.9 °F 75% 30.24 in 8.0 mi North 4.6 mph - N/A   Overcast
7:54 AM 27.0 °F 23.0 °F 21.0 °F 78% 30.25 in 7.0 mi North 3.5 mph - N/A   Mostly Cloudy
8:54 AM 28.0 °F - 21.0 °F 75% 30.24 in 7.0 mi Calm Calm - N/A   Mostly Cloudy
9:54 AM 30.0 °F 24.1 °F 21.9 °F 72% 30.21 in 8.0 mi ENE 5.8 mph - N/A   Mostly Cloudy
10:54 AM 33.1 °F 27.7 °F 23.0 °F 66% 30.18 in 9.0 mi Variable 5.8 mph - N/A   Clear
11:54 AM 39.0 °F 35.7 °F 25.0 °F 57% 30.16 in 10.0 mi NNE 4.6 mph - N/A   Clear
12:54 PM 42.1 °F - 26.1 °F 53% 30.12 in 10.0 mi Calm Calm - N/A   Clear
1:54 PM 44.1 °F 40.1 °F 27.0 °F 51% 30.08 in 10.0 mi East 6.9 mph - N/A   Clear
2:54 PM 46.0 °F 43.1 °F 27.0 °F 47% 30.04 in 10.0 mi ESE 5.8 mph - N/A   Clear
3:54 PM 46.0 °F 43.1 °F 28.0 °F 50% 30.01 in 10.0 mi East 5.8 mph - N/A   Clear
4:54 PM 46.9 °F - 28.0 °F 48% 30.00 in 10.0 mi ESE 5.8 mph - N/A   Clear
5:54 PM 45.0 °F 41.8 °F 28.0 °F 52% 29.99 in 10.0 mi ESE 5.8 mph - N/A   Clear
6:54 PM 42.1 °F 39.2 °F 28.0 °F 58% 29.98 in 10.0 mi East 4.6 mph - N/A   Clear
7:54 PM 39.0 °F - 28.0 °F 65% 29.96 in 10.0 mi Calm Calm - N/A   Clear
8:54 PM 33.1 °F - 26.1 °F 75% 29.94 in 10.0 mi Calm Calm - N/A   Clear
9:54 PM 33.1 °F - 26.1 °F 75% 29.93 in 10.0 mi Calm Calm - N/A   Clear
10:54 PM 30.0 °F - 26.1 °F 85% 29.90 in 10.0 mi Calm Calm - N/A   Clear
11:54 PM 42.1 °F 37.1 °F 32.0 °F 67% 29.86 in 10.0 mi South 8.1 mph - N/A   Clear